Location: Sihaung
(22.8641°N, 94.0549°E)
Time: 13:34:08
(UTC+00:00)

Cosmos 2344 - Pass Details

Date: 03 March 2021
Orbit: 1242 x 3001 km, 63.3° (Epoch: 10 April)

Event Time Altitude Azimuth Distance (km) Brightness Sun altitude
Exits shadow 22:04:59 39° 323° (NW) 1,802 4.1 -27.9°
Drops below altitude 10° 22:10:41 10° 10° (N) 3,227 5.8 -26.6°
Sets 22:13:41 0° 18° (NNE) 4,256 6.6 -25.9°
